Location: Владивосток
(43.1151°N, 131.8856°E)
Time: 00:20:19
(UTC+10:00)

Envisat - Pass Details

Date: 21 January 2022
Orbit: 764 x 765 km, 98.2° (Epoch: 17 May)

Event Time Altitude Azimuth Distance (km) Brightness Sun altitude
Rises 18:40:13 0° 216° (SW) 3,217 7.3 -5.9°
Reaches altitude 10° 18:43:46 10° 242° (WSW) 2,297 7.3 -6.5°
Maximum altitude 18:46:13 14° 271° (W) 2,065 6.5 -6.9°
Drops below altitude 10° 18:48:41 10° 301° (WNW) 2,305 6.1 -7.3°
Sets 18:52:16 0° 327° (NNW) 3,238 6.4 -8.0°
